RH
22 22 23 23 23 25 27 28 27 27 29 32 33 33 32 29 27 25 26 26 26 26 25 25 25 25 26 26 25 25 25 23 21 21 23 23 25 30 33 31 30 32
21 22 23 23 24 25 27 28 28 28 29 30 31 31 31 30 28 27 29 28 28 26 25 25 25 25 27 27 27 26 26 25 24 21 22 22 22 24 29 34 35 35
20 22 22 23 24 25 27 28 28 29 28 28 29 30 31 31 31 32 33 33 32 29 27 25 25 25 25 26 28 28 27 26 26 24 22 22 22 22 23 28 34 37
20 22 23 24 25 26 26 27 28 28 28 28 29 30 31 31 32 33 34 35 35 33 30 27 25 25 25 25 26 28 29 28 27 27 25 23 22 22 22 23 27 32
21 23 24 25 26 26 26 26 27 28 28 29 29 30 31 31 31 32 33 35 34 34 32 29 26 25 24 24 24 25 28 28 28 27 27 26 24 22 22 21 22 25
21 22 23 26 26 26 27 26 27 28 29 30 30 30 31 30 31 31 32 33 32 31 30 29 27 25 24 24 23 23 24 26 27 27 27 27 26 25 23 22 22 21
20 21 21 24 25 26 27 27 27 27 28 29 29 29 29 29 30 30 30 30 27 26 26 26 26 25 24 24 23 23 23 23 24 25 27 28 27 27 25 24 23 22
18 19 20 22 23 25 26 27 27 27 27 27 27 27 27 28 28 28 28 27 23 21 22 23 24 24 25 25 25 25 24 23 23 23 25 27 27 28 27 26 25 24
15 17 19 20 21 22 24 24 25 25 25 24 24 25 25 26 27 28 27 25 22 21 21 21 21 21 22 24 24 25 25 25 24 23 23 24 25 26 26 26 26 25
14 15 16 17 17 18 20 21 22 22 22 22 22 22 23 23 24 26 27 26 25 25 25 23 20 19 19 21 21 23 25 25 24 24 24 24 23 23 24 24 24 25
14 14 14 15 14 15 16 17 18 18 18 19 19 19 21 21 22 22 23 25 26 27 27 24 20 18 18 18 19 21 23 24 24 24 24 24 24 23 22 22 22 23
16 15 15 14 14 15 15 15 16 16 16 16 17 18 18 19 19 19 18 20 23 24 23 21 18 18 17 17 18 19 20 21 22 23 24 24 24 22 22 22 22 22
18 17 16 16 16 16 17 16 16 16 16 16 16 16 17 17 17 17 17 17 19 19 19 18 18 17 17 17 18 19 19 20 20 21 23 23 23 22 21 21 21 21
17 18 18 18 19 19 19 20 19 19 19 18 18 17 17 17 17 17 17 17 18 18 18 19 19 19 19 19 19 20 20 20 21 21 22 22 21 21 21 20 21 21
12 15 17 17 18 19 18 19 20 22 24 23 22 21 20 19 18 18 18 18 18 18 18 19 19 19 20 20 21 22 21 21 22 21 22 22 21 21 21 21 21 21
10 11 12 12 13 13 13 14 15 19 24 27 27 27 26 25 24 23 22 22 21 21 21 21 21 20 21 21 21 22 22 22 22 22 22 22 22 22 22 22 23 23
13 11 11 10 10 10 9 11 11 13 16 20 25 28 28 27 27 26 26 26 26 26 25 24 24 24 24 25 25 25 25 25 25 26 26 25 25 25 24 25 25 25
22 16 14 12 11 10 10 9 10 10 11 13 16 19 21 21 21 21 21 23 24 24 24 23 23 26 27 28 30 30 32 33 33 33 34 34 34 34 32 31 31 31
28 23 19 15 13 12 11 10 10 10 9 10 11 13 15 15 15 15 15 16 17 17 17 18 18 21 23 25 27 30 32 35 36 38 40 41 42 44 45 45 46 47
20 21 18 16 14 13 13 11 11 10 9 10 11 11 12 12 11 13 13 13 13 13 13 14 14 15 17 19 20 22 23 25 27 29 32 35 38 43 49 57 65 72
16 16 16 14 13 13 14 12 11 11 10 10 10 10 11 11 11 11 12 12 12 12 12 13 13 13 15 16 16 16 17 17 17 18 21 25 28 32 37 46 60 74
23 19 16 14 14 12 12 13 12 12 11 10 11 10 10 11 10 10 11 12 12 13 13 12 13 13 14 15 15 16 16 15 15 15 15 17 20 22 24 27 34 42
46 41 29 22 19 14 12 13 12 11 12 10 10 11 10 10 11 10 10 11 12 12 12 12 12 13 14 15 16 16 16 16 15 15 15 15 16 17 18 19 20 22
84 84 71 53 35 19 13 13 12 11 12 11 10 11 11 10 11 11 10 11 12 12 12 12 12 13 13 14 15 16 17 16 15 15 15 14 14 16 17 18 18 18
98 101 100 88 63 37 19 13 15 13 11 12 11 10 11 11 11 11 11 10 11 10 11 12 12 12 13 13 15 16 16 16 15 15 14 13 14 15 16 17 17 17
101 101 105 104 89 64 34 18 20 19 13 13 13 10 10 11 10 11 11 10 10 10 11 11 11 12 13 12 14 15 15 16 15 14 13 12 13 14 15 16 16 16
Wind_Speed
23 22 22 21 20 20 19 18 16 14 13 12 10 8 7 5 4 3 1 0 1 2 3 4 4 5 6 6 7 7 8 8 8 9 9 10 10 11 11 12 13 14
23 23 22 22 21 21 20 19 17 16 14 13 11 10 8 7 6 4 3 2 2 3 4 4 5 5 6 6 7 7 7 7 7 7 8 8 9 9 9 9 10 12
22 22 22 22 21 21 20 19 18 17 15 14 13 12 10 9 8 7 6 5 5 5 5 6 6 6 6 7 7 7 7 7 7 7 7 8 8 9 9 8 8 9
22 21 21 21 22 21 21 20 19 18 16 15 14 13 12 11 10 9 8 8 8 8 8 8 8 8 7 8 8 8 7 7 7 7 7 8 8 9 9 9 8 8
22 22 22 22 21 21 21 20 19 18 18 17 16 15 14 13 12 11 11 11 10 10 10 10 10 9 9 9 9 8 8 8 8 8 8 8 9 9 9 9 9 9
25 24 23 23 22 22 21 20 20 19 19 19 18 17 16 15 14 14 13 13 13 13 12 12 11 11 10 10 10 9 9 9 9 9 9 9 10 10 10 10 10 10
28 27 25 24 23 22 21 21 21 21 21 20 20 19 18 18 17 17 16 16 15 15 14 14 13 13 12 12 11 11 11 10 10 10 10 10 11 11 12 12 12 12
30 29 28 26 25 24 23 23 23 23 22 22 22 20 20 20 19 19 18 18 17 17 16 16 16 15 14 14 14 13 13 13 12 12 12 12 12 12 13 13 13 13
30 30 30 29 28 27 26 26 26 25 25 25 24 23 22 21 21 21 20 20 19 19 19 19 18 18 17 16 16 16 16 15 14 14 13 13 13 13 14 14 14 15
29 30 30 30 29 28 28 28 28 28 27 27 26 25 24 23 23 23 22 22 22 22 22 22 21 21 20 19 18 18 18 17 17 16 15 14 14 14 15 15 15 16
28 29 29 28 27 27 27 27 28 28 27 27 27 26 26 25 25 25 24 24 24 25 25 24 24 23 22 21 20 20 19 19 19 18 17 16 16 16 16 16 17 17
26 27 26 25 23 23 23 24 25 25 25 25 25 25 25 26 26 26 25 24 25 25 26 25 25 25 24 22 22 21 21 21 20 20 19 18 18 18 18 18 18 18
25 25 23 21 20 19 19 21 22 22 22 22 23 23 24 24 25 24 24 23 23 24 24 24 24 24 24 23 22 23 23 23 22 21 21 20 20 20 20 20 20 20
24 23 21 20 19 18 18 19 19 20 20 20 21 22 23 23 23 23 23 22 22 22 23 23 23 23 23 23 23 23 24 24 24 23 23 23 23 23 23 23 22 22
22 21 21 20 19 19 19 19 18 18 18 18 20 21 21 21 21 22 22 23 23 22 22 23 23 23 23 23 23 24 25 25 25 25 25 25 26 26 25 25 24 24
20 20 20 20 20 19 18 17 17 17 17 18 19 19 20 20 20 21 21 22 23 23 23 23 23 23 23 24 24 25 26 27 27 27 27 27 27 28 28 27 27 26
19 19 19 19 19 18 17 17 16 17 17 18 18 19 19 19 19 19 20 20 22 23 23 23 23 23 23 24 25 26 27 28 28 28 29 29 28 28 28 29 28 28
21 20 20 20 20 19 19 18 17 17 17 18 18 19 18 18 18 18 18 18 20 21 22 22 21 21 22 23 24 25 26 28 29 29 29 29 29 29 28 29 29 30
25 24 23 22 22 21 21 20 19 18 17 17 17 17 17 18 18 17 17 17 18 20 20 21 20 20 21 22 23 24 25 27 28 28 28 28 28 28 28 28 29 30
29 28 27 25 24 24 24 23 22 20 18 17 17 17 18 18 17 17 17 17 18 18 19 20 20 20 20 21 22 23 24 25 27 27 27 27 27 27 27 27 28 30
31 30 28 28 27 26 26 25 23 21 20 19 18 18 19 18 18 17 17 17 18 18 19 19 20 19 20 20 21 22 23 25 26 26 27 27 27 26 26 26 27 28
34 31 29 28 28 27 27 26 24 22 21 20 20 20 19 19 19 19 18 17 18 19 19 19 19 19 20 20 21 22 23 24 25 26 26 26 26 27 27 28 28 29
36 33 31 30 28 27 27 26 24 23 22 22 21 21 21 20 20 20 19 18 19 20 21 20 19 20 20 20 20 21 22 24 25 25 26 26 26 27 28 29 29 30
38 34 33 32 31 28 27 25 25 23 22 22 22 22 22 22 22 22 22 21 20 21 21 21 21 21 21 21 20 21 22 23 24 25 25 25 26 26 27 29 30 31
39 36 35 34 33 31 28 26 25 24 23 23 24 24 24 24 24 24 25 24 23 22 22 22 22 22 22 22 21 21 22 23 23 24 25 25 25 26 26 28 29 31
39 38 36 34 34 33 30 27 26 24 24 25 25 26 25 25 26 27 27 27 26 25 24 24 24 24 24 23 23 22 23 23 23 24 25 25 25 25 26 27 29 30
Wind_Direction
202 205 208 209 207 205 204 203 200 198 197 196 195 196 197 196 196 195 186 15 1 352 347 348 350 353 356 359 3 10 16 19 20 19 19 22 29 36 39 39 40 39
199 201 204 206 205 205 206 206 205 204 205 206 207 207 208 208 210 214 222 246 274 293 304 313 321 329 336 341 346 351 359 6 9 8 7 7 12 20 27 29 30 31
198 200 202 204 205 206 207 207 208 210 212 215 216 216 217 219 221 226 234 247 262 275 286 294 301 308 315 322 329 334 340 348 353 354 353 353 354 0 8 14 16 18
199 200 202 204 207 208 209 209 211 214 218 221 224 224 225 227 231 235 241 249 259 268 276 282 288 294 300 306 314 321 326 332 337 340 341 339 340 343 348 355 0 3
201 200 202 205 209 211 213 214 216 218 222 227 230 232 233 235 239 243 247 253 259 265 271 276 280 286 291 297 304 312 317 322 325 327 329 329 329 330 332 337 343 348
204 202 202 204 208 213 216 219 221 223 226 231 235 238 241 243 246 250 253 258 262 266 270 274 278 283 288 293 300 307 314 318 319 320 321 321 321 321 322 324 328 333
207 206 205 206 209 213 218 223 227 229 232 236 240 243 247 250 253 256 258 262 266 269 273 277 281 286 291 295 300 306 312 316 318 318 317 316 316 317 317 318 319 322
209 210 210 210 212 214 219 225 230 234 237 240 243 247 250 253 256 258 261 264 268 273 277 280 284 289 293 297 300 303 308 313 317 318 317 315 314 314 314 315 316 316
210 212 214 215 216 218 221 226 231 235 238 241 244 247 250 253 257 259 261 265 269 275 280 283 285 288 292 295 299 301 304 308 312 315 317 315 313 312 312 313 314 314
210 211 214 216 218 221 224 229 233 236 240 243 245 248 250 253 256 259 262 265 269 274 280 284 286 288 291 293 297 299 301 304 308 311 313 314 312 310 310 311 312 312
213 212 213 215 217 221 225 230 235 240 244 247 249 251 252 254 257 261 264 267 271 274 279 283 286 288 290 292 295 297 298 300 303 306 308 309 308 307 308 309 311 312
217 218 216 215 216 219 224 230 236 242 247 250 253 255 256 257 260 264 268 270 273 276 280 283 285 287 290 292 294 295 296 297 299 302 303 304 304 305 306 308 310 311
216 221 222 219 217 218 222 229 235 241 246 250 253 255 256 258 261 265 269 272 273 276 280 283 285 288 291 293 294 295 295 296 298 299 300 300 302 303 306 308 310 311
211 217 221 222 220 218 220 225 230 237 244 249 252 254 256 259 262 265 269 271 273 276 279 282 285 288 291 294 295 295 295 296 298 299 300 301 302 304 307 309 310 311
209 212 216 220 220 219 220 221 224 230 238 246 252 255 259 262 265 267 269 272 275 277 279 281 284 287 290 292 294 294 295 296 298 299 300 302 303 305 308 309 310 311
212 213 216 220 224 225 224 222 222 224 229 237 246 252 257 261 264 267 269 273 277 279 280 282 284 287 289 291 292 293 294 296 298 299 301 302 304 305 307 309 310 310
221 220 221 225 231 233 232 229 226 225 227 231 237 243 249 254 259 263 267 271 275 278 281 283 284 287 289 290 291 292 294 296 298 299 301 303 304 305 307 308 309 309
224 225 225 227 233 237 238 237 233 231 231 231 234 239 244 249 254 258 262 266 270 274 279 283 286 287 288 288 290 291 292 294 296 298 301 302 304 305 307 308 308 308
219 222 224 226 231 236 239 240 238 238 238 238 240 242 245 249 253 258 262 266 270 275 279 284 287 288 288 290 291 292 292 293 295 297 299 301 303 305 306 307 308 308
216 218 219 221 225 231 235 238 241 243 245 246 246 247 249 253 258 262 265 269 274 279 282 287 290 292 293 294 294 295 296 296 297 298 300 301 302 304 304 305 305 306
219 221 220 219 221 226 231 235 239 243 248 250 252 253 255 259 263 265 268 271 277 282 285 288 293 295 297 297 298 300 300 300 303 304 305 304 304 304 303 302 301 301
223 225 227 226 225 226 229 233 237 242 247 252 255 258 261 264 266 268 271 274 277 281 284 287 292 295 297 298 300 301 302 304 307 310 311 310 308 306 304 303 301 299
226 227 231 234 233 231 231 233 237 241 246 252 256 260 263 266 268 270 272 272 273 277 281 286 290 293 295 297 298 300 302 305 308 312 313 314 313 310 308 306 304 302
231 231 234 236 237 237 236 236 239 243 248 253 256 259 262 264 267 270 271 271 271 272 277 282 285 288 290 293 296 299 300 303 307 310 313 317 318 315 312 309 307 305
230 234 236 237 237 238 238 238 241 245 250 254 256 258 261 263 265 268 270 271 272 272 274 277 280 283 285 288 292 295 296 300 305 308 312 319 322 320 315 312 310 309
226 230 234 236 235 236 237 239 242 245 249 253 257 259 261 262 263 265 268 270 272 273 273 274 276 279 281 284 287 289 292 297 301 305 312 320 324 322 319 316 315 314